Temp
71 75 69 69 59 54 48 53 54 57 57 62 64 64 61 60 60 53 66 71 71 71 73 74 74 75 75 75 75 75 76 76 77 76 77 76 76 76 76 76 75 76 77 76 75 74 73 72 72
71 75 70 61 52 46 48 53 56 59 62 63 65 64 60 57 63 66 65 71 72 72 73 72 73 74 75 74 74 75 75 76 77 77 77 77 77 77 76 76 76 76 75 76 75 74 73 72 72
75 73 64 55 49 47 49 56 58 61 63 63 61 65 61 60 63 66 70 72 72 72 72 71 72 74 74 74 74 75 75 75 76 76 77 77 76 76 75 75 75 75 75 76 75 73 72 71 71
71 68 63 53 48 53 56 56 60 61 62 64 64 59 62 66 67 70 73 72 71 70 71 70 72 74 74 74 74 75 75 75 76 76 76 77 76 76 75 75 75 75 75 75 73 72 71 71 71
66 61 52 49 51 58 59 62 61 59 59 61 63 59 58 67 70 71 71 72 69 68 69 71 72 73 74 74 74 74 75 75 75 75 76 76 75 75 74 74 75 75 75 74 72 72 71 70 70
60 57 48 44 50 58 61 64 61 60 60 61 60 58 58 66 68 69 70 70 70 68 69 70 68 70 72 73 73 74 74 74 74 75 75 75 74 74 74 75 75 74 73 73 72 71 70 70 70
56 51 45 44 49 54 59 63 58 58 59 60 64 56 57 62 68 69 68 69 69 70 69 68 68 69 68 69 70 71 72 73 73 73 73 73 73 73 73 73 74 75 74 72 71 70 69 69 69
57 53 47 45 48 51 59 61 61 61 59 67 65 57 56 63 67 68 68 69 68 69 69 67 67 68 67 67 66 67 69 70 71 70 69 68 69 70 70 69 71 74 73 71 71 70 69 69 68
60 48 44 48 52 54 61 58 64 63 61 63 65 60 63 66 66 65 65 65 67 68 69 68 67 67 67 67 66 65 66 67 67 66 65 64 64 65 66 65 68 72 72 70 70 69 69 67 66
54 46 50 55 54 53 58 59 59 59 59 58 58 61 63 63 62 63 62 63 64 65 66 68 67 66 66 70 66 65 66 65 65 64 63 63 62 62 65 62 65 68 70 69 69 68 66 64 59
53 48 54 57 59 60 58 57 60 55 54 59 58 60 61 60 61 61 62 63 63 66 67 67 67 68 66 67 65 64 64 63 63 63 62 62 62 60 60 59 60 60 61 61 63 62 60 59 58
50 57 57 60 61 59 57 59 56 56 60 63 63 64 61 60 60 61 61 62 63 65 67 68 69 67 66 67 65 65 64 63 63 63 63 61 59 58 58 58 59 59 59 58 58 57 58 58 59
51 55 59 61 58 59 60 57 56 57 63 65 62 63 60 60 60 62 63 63 64 64 66 67 67 68 67 65 64 64 64 64 64 63 64 63 60 58 59 59 58 58 58 57 57 57 57 57 58
54 56 57 58 58 57 56 55 55 58 63 62 63 61 60 61 61 60 61 63 63 65 65 67 66 68 67 66 65 65 65 65 64 65 65 65 62 60 59 59 59 58 58 58 57 57 57 57 58
55 50 53 54 56 55 57 51 52 60 59 59 59 60 61 61 61 61 64 64 66 67 68 66 66 67 68 67 66 65 65 66 65 65 65 65 64 62 61 60 59 59 58 58 57 57 57 57 58
48 46 41 52 54 57 55 46 54 60 56 58 58 56 58 62 63 64 65 65 66 67 68 69 70 68 67 69 68 68 66 66 66 66 66 65 65 63 61 61 60 60 59 59 56 57 56 56 56
47 37 39 45 55 54 51 45 55 59 55 55 56 58 58 60 63 63 65 66 67 67 67 68 67 67 68 68 69 69 68 66 66 66 66 65 66 65 64 62 62 59 59 59 59 57 57 55 55
43 39 39 40 48 49 47 47 54 55 55 55 53 54 56 58 62 65 65 66 68 66 69 67 67 67 66 69 66 67 67 67 67 66 67 66 66 65 64 63 61 60 59 58 56 56 55 55 57
42 39 39 41 51 46 46 47 51 53 52 51 53 54 55 57 63 65 65 64 63 64 65 67 66 67 66 65 65 66 65 65 66 67 67 67 67 65 65 65 61 60 60 61 59 58 57 57 55
42 40 38 44 49 46 45 45 49 50 52 54 56 58 59 59 59 64 64 63 61 65 66 67 68 68 66 68 68 69 68 68 68 68 68 67 67 66 66 65 64 62 61 59 58 59 56 58 57
41 39 38 41 45 46 42 43 47 52 52 55 57 59 59 59 60 63 61 61 60 60 62 66 67 68 68 68 66 63 64 63 64 66 67 67 68 68 65 66 65 63 63 62 61 60 59 58 56
37 44 43 42 37 33 41 33 44 49 50 51 52 52 54 55 57 57 59 56 57 58 58 62 64 64 66 66 64 63 64 63 66 67 68 68 67 68 66 66 65 65 63 63 62 62 61 60 58
40 47 43 42 37 33 39 34 42 44 43 46 51 54 55 54 55 54 56 58 56 57 56 58 60 61 63 64 65 64 63 66 67 67 67 67 68 67 67 65 66 64 64 64 63 62 61 62 60
46 42 39 37 36 31 38 34 38 45 47 47 54 53 51 52 53 55 55 56 56 55 55 56 57 59 60 60 61 62 63 64 64 65 65 66 66 67 66 66 65 65 65 64 64 63 62 62 63
41 37 29 29 29 28 37 34 41 46 48 49 51 50 51 52 52 53 53 53 53 53 53 56 54 56 58 58 58 59 60 63 64 65 65 65 65 65 66 65 65 65 65 65 64 63 62 62 61
39 39 29 21 24 27 33 31 40 48 53 53 52 52 50 50 51 51 50 51 51 52 52 52 53 53 55 57 58 57 57 59 62 65 66 66 66 66 67 67 66 66 65 65 65 63 62 63 62
38 36 43 33 26 29 33 35 44 47 45 45 46 48 48 49 49 49 49 49 49 49 50 50 51 51 52 53 55 57 58 57 58 60 63 66 66 67 66 65 64 65 65 64 64 63 62 62 62
41 42 33 35 25 23 26 28 34 41 43 44 45 47 47 46 46 46 46 47 47 47 48 48 49 48 49 51 52 53 55 57 58 58 59 61 64 64 64 64 63 64 64 64 63 63 63 62 62
37 37 38 36 33 28 23 28 43 42 44 44 48 49 46 43 43 43 44 44 45 45 45 45 45 46 46 47 47 48 50 53 56 57 58 59 60 62 62 63 63 63 63 63 63 62 62 61 61
43 41 40 32 29 31 29 27 48 46 49 48 48 47 45 43 42 41 41 42 41 42 42 42 42 43 43 43 44 45 47 49 51 53 56 57 56 58 60 61 61 61 61 62 62 62 61 60 60
MSLP
1014.62 1013.84 1013.77 1014.06 1015.84 1016.72 1017.27 1017.15 1016.54 1016.23 1016.00 1015.64 1015.61 1015.83 1016.53 1016.97 1017.33 1018.20 1017.56 1017.84 1018.03 1018.42 1018.90 1019.08 1019.26 1019.43 1019.60 1019.78 1019.86 1019.88 1019.94 1020.09 1020.17 1020.23 1020.26 1020.33 1020.34 1020.51 1020.63 1020.75 1020.83 1020.75 1020.80 1021.07 1021.27 1021.39 1021.50 1021.63 1021.70
1014.65 1013.94 1014.10 1015.26 1016.74 1017.68 1017.87 1017.12 1016.64 1016.15 1015.88 1015.78 1015.80 1016.29 1016.65 1017.32 1017.37 1017.74 1018.04 1018.01 1017.95 1018.31 1018.80 1019.12 1019.32 1019.52 1019.78 1019.96 1020.00 1020.02 1020.05 1020.20 1020.32 1020.50 1020.53 1020.32 1020.39 1020.62 1020.75 1020.87 1021.02 1021.01 1021.15 1021.20 1021.43 1021.66 1021.73 1021.92 1021.97
1014.51 1014.74 1015.67 1016.55 1017.69 1017.97 1017.52 1016.97 1016.46 1016.08 1015.82 1015.83 1016.08 1016.29 1016.83 1017.34 1017.44 1017.47 1017.36 1017.78 1018.00 1018.49 1018.75 1019.17 1019.40 1019.71 1019.91 1020.17 1020.15 1020.22 1020.17 1020.31 1020.51 1020.65 1020.78 1020.64 1020.59 1020.71 1020.83 1020.98 1021.16 1021.20 1021.36 1021.43 1021.67 1021.87 1022.00 1022.12 1022.15
1015.24 1015.50 1016.67 1017.27 1017.82 1017.38 1016.83 1016.73 1016.41 1016.18 1015.98 1015.90 1016.12 1016.78 1017.16 1017.18 1017.25 1017.17 1017.33 1017.76 1018.07 1018.56 1018.86 1019.21 1019.54 1019.65 1020.00 1020.19 1020.34 1020.39 1020.43 1020.46 1020.58 1020.79 1020.99 1020.86 1020.91 1020.93 1021.10 1021.13 1021.33 1021.50 1021.54 1021.72 1021.93 1022.11 1022.23 1022.31 1022.28
1016.17 1017.15 1017.98 1018.24 1018.16 1017.35 1016.61 1016.45 1016.29 1016.16 1016.06 1016.03 1016.14 1016.81 1017.37 1017.28 1017.06 1017.36 1017.64 1017.70 1018.10 1018.71 1019.01 1019.21 1019.51 1019.69 1019.95 1020.18 1020.38 1020.50 1020.58 1020.59 1020.69 1020.83 1021.02 1021.05 1021.16 1021.20 1021.34 1021.41 1021.51 1021.61 1021.78 1021.99 1022.19 1022.29 1022.39 1022.45 1022.41
1017.46 1018.46 1019.10 1019.24 1018.58 1017.71 1016.96 1016.42 1015.97 1016.11 1016.14 1016.25 1016.51 1017.19 1017.61 1017.55 1017.53 1017.67 1017.93 1018.08 1017.85 1018.53 1018.98 1019.26 1019.47 1019.80 1020.01 1020.25 1020.36 1020.56 1020.66 1020.73 1020.78 1020.92 1021.15 1021.28 1021.31 1021.43 1021.52 1021.60 1021.71 1021.82 1022.05 1022.20 1022.33 1022.44 1022.52 1022.58 1022.58
1018.56 1019.57 1019.93 1019.44 1018.92 1018.16 1017.47 1016.76 1016.64 1016.41 1016.28 1016.33 1016.43 1017.35 1018.03 1018.01 1017.70 1017.80 1017.96 1018.11 1018.25 1018.24 1018.73 1019.14 1019.45 1019.73 1020.01 1020.27 1020.42 1020.51 1020.69 1020.82 1020.89 1020.93 1021.09 1021.26 1021.36 1021.48 1021.54 1021.67 1021.73 1021.83 1022.03 1022.29 1022.42 1022.52 1022.58 1022.60 1022.62
1018.95 1019.99 1020.04 1019.46 1019.01 1018.25 1017.53 1016.97 1016.80 1016.60 1016.51 1016.26 1016.43 1017.39 1017.86 1017.63 1017.80 1017.99 1018.43 1018.52 1018.60 1018.42 1018.46 1018.87 1019.19 1019.50 1019.94 1020.21 1020.44 1020.56 1020.62 1020.81 1020.96 1021.03 1021.12 1021.30 1021.33 1021.43 1021.52 1021.69 1021.77 1021.84 1021.99 1022.19 1022.43 1022.61 1022.62 1022.64 1022.64
1018.90 1020.25 1020.22 1019.35 1018.82 1018.29 1017.73 1017.38 1017.07 1016.80 1016.75 1016.77 1017.01 1017.49 1017.61 1017.47 1017.86 1018.21 1018.44 1018.88 1018.83 1018.77 1018.65 1018.58 1018.91 1019.15 1019.53 1020.03 1020.27 1020.56 1020.66 1020.76 1020.90 1021.10 1021.21 1021.44 1021.59 1021.53 1021.59 1021.67 1021.76 1021.75 1022.02 1022.31 1022.43 1022.52 1022.60 1022.67 1022.66
1019.61 1020.44 1019.82 1019.08 1018.74 1018.44 1018.12 1018.04 1017.82 1017.37 1017.35 1017.35 1017.55 1017.92 1018.06 1018.08 1018.37 1018.40 1018.51 1018.79 1018.86 1018.72 1018.73 1018.47 1018.60 1018.78 1019.16 1019.40 1019.98 1020.34 1020.61 1020.81 1020.88 1021.00 1021.19 1021.34 1021.59 1021.65 1021.66 1021.76 1021.75 1021.79 1021.93 1022.19 1022.43 1022.55 1022.63 1022.71 1022.74
1019.76 1019.94 1019.37 1018.97 1018.61 1018.48 1018.40 1018.16 1017.86 1017.77 1017.72 1017.51 1017.74 1018.02 1018.42 1018.65 1018.75 1018.81 1018.57 1018.41 1018.53 1018.56 1018.44 1018.37 1018.40 1018.50 1018.72 1018.95 1019.43 1020.01 1020.36 1020.63 1020.88 1020.93 1021.11 1021.19 1021.39 1021.67 1021.80 1021.85 1021.90 1021.96 1022.00 1022.17 1022.26 1022.44 1022.64 1022.74 1022.77
1019.97 1019.45 1019.36 1018.87 1018.62 1018.59 1018.60 1018.25 1018.15 1018.07 1017.81 1017.61 1017.65 1017.71 1018.16 1018.49 1018.47 1018.42 1018.55 1018.39 1018.17 1018.33 1018.31 1017.94 1018.05 1018.26 1018.58 1018.73 1019.05 1019.30 1019.83 1020.27 1020.48 1020.66 1020.77 1021.03 1021.36 1021.52 1021.64 1021.81 1021.89 1022.08 1022.10 1022.27 1022.42 1022.51 1022.47 1022.54 1022.51
1020.05 1019.69 1019.18 1018.80 1018.81 1018.57 1018.39 1018.45 1018.39 1018.19 1017.75 1017.39 1017.60 1017.77 1018.06 1018.21 1018.16 1018.00 1017.71 1017.92 1017.86 1017.84 1017.91 1017.79 1017.60 1017.85 1018.01 1018.49 1018.69 1019.00 1019.19 1019.56 1019.90 1020.16 1020.29 1020.56 1020.89 1021.20 1021.36 1021.49 1021.59 1021.76 1021.94 1022.06 1022.20 1022.32 1022.33 1022.33 1022.30
1019.99 1019.77 1019.43 1019.00 1018.76 1018.60 1018.51 1018.39 1018.52 1017.99 1017.51 1017.63 1017.62 1017.73 1017.80 1017.81 1017.50 1017.70 1017.83 1017.37 1017.40 1017.16 1017.31 1017.64 1017.65 1017.37 1017.58 1017.80 1018.09 1018.31 1018.72 1018.94 1019.32 1019.57 1019.70 1019.77 1020.11 1020.51 1020.88 1021.12 1021.27 1021.33 1021.39 1021.48 1021.63 1021.77 1021.93 1021.99 1021.95
1020.09 1020.13 1019.72 1019.30 1018.95 1018.75 1018.52 1018.48 1018.24 1017.85 1017.71 1017.97 1017.81 1017.43 1017.41 1017.43 1017.41 1017.10 1016.44 1016.55 1016.37 1016.17 1016.31 1016.74 1017.12 1017.16 1017.04 1017.19 1017.54 1017.79 1018.02 1018.36 1018.61 1018.78 1018.98 1019.18 1019.25 1019.54 1019.96 1020.46 1020.72 1020.77 1021.00 1021.15 1021.34 1021.47 1021.54 1021.64 1021.54
1020.75 1020.59 1020.41 1019.52 1019.04 1018.73 1019.08 1017.79 1018.19 1017.74 1017.80 1017.82 1017.81 1017.47 1017.17 1016.78 1016.61 1016.30 1016.04 1015.90 1015.70 1015.62 1015.47 1015.64 1016.27 1016.74 1016.77 1016.60 1016.84 1017.14 1017.41 1017.63 1017.88 1018.15 1018.40 1018.54 1018.69 1018.72 1019.19 1019.53 1019.78 1019.96 1020.31 1020.63 1020.95 1021.02 1021.28 1021.33 1021.27
1021.31 1021.15 1020.93 1020.26 1019.33 1019.25 1019.41 1018.19 1017.90 1017.40 1017.77 1018.05 1017.77 1017.34 1016.91 1016.53 1016.04 1015.70 1015.21 1015.01 1015.28 1015.12 1015.26 1015.23 1015.48 1015.77 1016.20 1016.35 1016.41 1016.68 1016.84 1017.01 1017.24 1017.48 1017.63 1017.76 1017.92 1018.14 1018.50 1018.84 1018.99 1019.37 1019.72 1019.99 1020.26 1020.53 1020.68 1020.84 1020.86
1021.23 1021.53 1021.32 1020.80 1019.91 1019.51 1019.49 1018.71 1018.05 1017.76 1017.77 1017.82 1017.66 1017.41 1017.08 1016.53 1015.79 1014.85 1014.52 1014.38 1014.36 1014.52 1014.61 1014.96 1014.93 1015.18 1015.57 1016.16 1016.43 1016.41 1016.46 1016.62 1016.84 1016.93 1016.94 1017.15 1017.36 1017.57 1017.84 1018.16 1018.51 1018.83 1019.22 1019.46 1019.74 1019.86 1020.07 1020.17 1020.22
1021.60 1021.71 1021.56 1020.98 1020.26 1020.16 1019.61 1018.85 1018.09 1017.65 1017.69 1017.82 1017.66 1017.12 1016.64 1016.14 1015.11 1014.51 1013.89 1013.60 1013.70 1014.09 1014.30 1014.30 1014.64 1014.23 1014.93 1015.54 1015.90 1016.02 1015.89 1016.21 1016.40 1016.34 1016.46 1016.62 1016.79 1016.98 1017.14 1017.32 1017.83 1018.13 1018.42 1018.61 1018.93 1019.27 1019.45 1019.67 1019.77
1021.90 1021.96 1021.62 1021.17 1020.59 1020.31 1019.86 1018.70 1018.25 1017.83 1017.37 1017.32 1017.12 1016.49 1015.98 1015.55 1014.84 1014.14 1013.71 1013.51 1013.49 1013.22 1013.37 1013.59 1013.70 1013.83 1014.00 1014.45 1014.85 1015.05 1015.25 1015.20 1015.31 1015.50 1015.66 1015.83 1015.80 1015.99 1016.21 1016.47 1016.88 1017.31 1017.76 1018.09 1018.37 1018.68 1018.97 1018.91 1019.15
1021.93 1021.94 1021.95 1021.60 1021.12 1020.50 1019.90 1018.31 1018.22 1017.00 1016.74 1016.29 1016.14 1015.67 1015.23 1014.73 1014.39 1013.58 1013.53 1013.39 1013.36 1013.32 1013.07 1012.97 1012.94 1013.25 1013.68 1013.89 1014.42 1014.79 1015.14 1015.06 1014.78 1014.72 1014.69 1014.62 1015.02 1015.22 1015.47 1015.67 1015.97 1016.42 1016.78 1017.04 1017.39 1017.76 1018.02 1018.21 1018.49
1021.50 1021.51 1021.73 1021.79 1021.89 1021.24 1020.14 1018.05 1017.54 1016.98 1016.06 1015.99 1015.56 1015.25 1014.66 1014.58 1014.03 1013.87 1013.39 1013.43 1013.51 1013.34 1013.02 1012.89 1013.08 1013.26 1013.53 1013.65 1014.00 1014.32 1014.38 1014.40 1014.07 1013.87 1013.85 1013.91 1013.95 1014.04 1014.47 1014.79 1015.05 1015.40 1015.70 1015.95 1016.20 1016.63 1016.93 1017.49 1017.60
1021.14 1021.13 1021.32 1021.57 1021.80 1021.82 1020.06 1020.17 1016.68 1016.64 1015.62 1015.50 1015.09 1014.57 1014.25 1013.88 1013.80 1014.09 1014.08 1013.98 1013.95 1013.73 1013.55 1013.49 1013.31 1013.39 1013.58 1013.82 1013.79 1013.79 1013.75 1013.60 1013.49 1013.54 1013.49 1013.35 1013.23 1013.24 1013.50 1013.84 1014.02 1014.40 1014.75 1014.85 1015.04 1015.39 1015.80 1016.13 1016.44
1020.81 1021.37 1021.73 1021.87 1022.02 1021.26 1019.90 1020.11 1016.55 1015.62 1014.63 1014.62 1014.22 1014.23 1014.04 1014.32 1014.16 1014.33 1014.50 1014.41 1014.28 1014.10 1013.87 1013.80 1013.78 1013.66 1013.66 1013.87 1013.89 1013.69 1013.42 1013.21 1013.20 1013.03 1012.92 1012.86 1012.69 1012.71 1012.86 1012.89 1013.19 1013.40 1013.73 1013.93 1013.99 1014.10 1014.40 1014.75 1014.92
1021.15 1021.80 1021.98 1021.96 1021.94 1020.12 1019.34 1019.49 1015.65 1014.78 1014.35 1014.61 1014.32 1014.69 1014.27 1014.65 1014.68 1014.70 1015.02 1015.23 1015.18 1015.09 1014.89 1014.70 1014.43 1014.21 1014.13 1014.06 1013.99 1013.82 1013.46 1013.09 1012.76 1012.44 1012.21 1012.09 1012.02 1012.03 1011.93 1012.16 1012.32 1012.45 1012.56 1012.71 1012.99 1013.25 1013.41 1013.51 1013.54
1020.37 1020.83 1020.97 1021.01 1021.33 1020.36 1019.79 1018.15 1015.40 1014.32 1013.58 1013.36 1013.85 1014.28 1014.81 1015.23 1015.41 1015.78 1016.11 1016.27 1016.13 1016.08 1015.86 1015.55 1015.40 1015.21 1014.82 1014.57 1014.33 1014.02 1013.57 1013.26 1012.71 1012.01 1011.56 1011.20 1011.07 1010.94 1010.90 1011.05 1011.31 1011.33 1011.42 1011.65 1011.96 1012.09 1012.17 1012.33 1012.39
1019.92 1020.01 1020.03 1020.70 1020.97 1020.98 1019.40 1017.93 1015.59 1014.45 1014.13 1013.91 1014.15 1014.76 1015.47 1016.04 1016.37 1016.76 1016.91 1017.20 1017.34 1017.09 1016.98 1016.72 1016.36 1016.24 1015.98 1015.46 1014.90 1014.38 1013.89 1013.39 1012.83 1012.12 1011.50 1010.85 1010.39 1010.11 1010.07 1010.03 1010.14 1010.25 1010.34 1010.53 1010.77 1010.84 1011.00 1011.20 1011.31
1018.98 1019.44 1020.17 1020.32 1020.39 1019.77 1018.77 1017.98 1016.11 1015.12 1015.11 1014.87 1015.18 1015.69 1016.62 1017.09 1017.36 1017.68 1018.05 1018.28 1018.32 1018.22 1017.98 1017.53 1017.32 1017.16 1016.84 1016.32 1015.74 1015.13 1014.40 1013.57 1012.92 1012.22 1011.59 1010.95 1010.19 1009.74 1009.52 1009.36 1009.31 1009.30 1009.38 1009.45 1009.58 1009.61 1009.78 1009.94 1010.05
1018.79 1018.84 1019.50 1019.90 1019.99 1019.39 1018.68 1017.15 1015.39 1014.75 1014.68 1015.49 1015.91 1016.61 1017.66 1018.50 1018.90 1019.14 1019.26 1019.38 1019.24 1019.21 1018.89 1018.57 1018.07 1017.59 1017.35 1017.17 1016.67 1015.84 1015.00 1014.07 1013.06 1012.46 1011.73 1011.08 1010.32 1009.65 1009.17 1008.79 1008.59 1008.41 1008.43 1008.46 1008.49 1008.47 1008.60 1008.70 1008.80
1017.54 1017.48 1018.42 1018.66 1019.05 1019.02 1017.96 1016.99 1014.84 1014.59 1015.36 1016.64 1017.29 1017.91 1019.06 1019.64 1020.13 1020.18 1020.22 1020.24 1020.00 1019.94 1019.69 1019.44 1019.09 1018.45 1018.25 1018.09 1017.61 1016.84 1015.98 1015.02 1014.02 1013.07 1012.12 1011.22 1010.60 1009.84 1009.07 1008.45 1008.07 1007.84 1007.65 1007.59 1007.53 1007.50 1007.57 1007.62 1007.64
Wind_Speed
12 13 1 5 6 6 2 2 2 2 2 2 1 3 6 2 2 2 1 8 12 11 7 7 11 13 13 12 11 11 11 11 11 11 10 9 13 14 14 14 11 12 12 11 12 11 11 11 10
9 7 5 3 6 4 4 2 3 3 3 1 3 4 2 2 2 5 5 9 12 11 8 6 11 12 13 12 12 12 12 12 11 11 9 10 11 11 12 14 11 12 12 11 11 10 10 9 8
7 1 4 5 3 3 4 5 5 3 3 2 2 4 3 5 1 8 5 10 12 9 9 7 11 12 13 12 12 12 12 12 12 11 10 10 14 12 13 13 12 10 12 10 10 9 8 8 7
6 6 5 5 1 1 4 1 4 4 2 2 3 3 2 1 6 6 13 11 11 9 9 10 11 13 13 12 12 12 11 13 13 12 9 10 11 12 12 12 12 9 11 10 9 8 7 7 7
5 4 5 3 4 5 2 3 4 2 2 3 2 4 2 4 2 7 10 12 12 7 7 9 11 12 13 13 12 12 11 11 11 12 11 10 10 11 11 11 11 10 8 9 8 7 6 6 6
6 3 5 2 5 6 3 4 2 3 2 1 2 3 2 1 5 6 8 9 12 11 8 7 10 10 10 11 12 12 11 11 11 9 11 8 6 10 9 9 12 11 10 8 7 6 5 5 5
5 4 2 1 3 4 4 7 3 2 3 2 1 3 1 2 5 6 7 8 9 11 10 7 7 7 10 10 10 10 10 10 11 10 11 10 6 7 7 3 7 9 10 9 7 6 4 2 3
5 4 3 2 1 1 4 3 2 4 1 5 2 3 4 6 7 6 5 7 7 9 10 9 8 7 5 6 9 9 10 10 10 10 9 8 8 7 8 8 6 10 8 8 8 6 4 2 1
3 4 2 3 4 4 5 3 7 2 3 3 4 2 5 8 6 5 4 5 6 6 9 9 9 8 7 6 6 8 9 10 10 8 8 6 3 4 6 6 8 10 9 7 7 6 6 5 4
5 4 6 2 2 1 3 5 5 4 6 4 3 4 5 4 4 7 6 7 6 8 7 10 10 10 9 7 7 6 5 4 5 5 6 4 5 4 4 5 7 8 11 9 8 6 5 5 2
2 6 3 2 2 3 2 3 4 2 3 3 2 5 6 4 5 6 7 7 7 7 7 9 10 9 10 8 6 4 3 3 4 6 6 5 4 3 3 2 2 2 6 3 5 3 3 4 3
2 5 3 4 2 0 4 3 4 3 6 4 6 5 7 9 10 11 9 8 6 6 8 10 10 9 9 6 6 7 6 6 5 6 8 5 3 4 4 3 4 4 3 4 4 3 4 5 5
4 4 7 7 3 5 4 5 5 6 10 11 4 4 10 9 10 9 9 7 8 8 7 7 10 11 10 9 6 7 8 7 8 6 8 6 5 5 4 5 4 4 4 4 4 4 4 5 5
3 4 4 3 5 3 4 5 3 6 8 9 8 7 10 11 14 7 8 12 11 9 8 7 7 10 9 10 10 8 7 8 8 8 8 10 7 6 6 6 6 5 6 6 6 6 5 5 5
3 5 5 4 4 3 3 6 8 10 5 8 12 10 9 11 7 13 15 15 15 13 11 10 8 8 11 11 10 8 8 8 8 9 10 10 10 9 9 7 6 6 5 6 5 5 4 4 5
4 2 3 4 3 6 5 15 6 10 6 10 10 9 8 11 10 13 12 14 13 12 16 13 9 9 10 11 9 8 8 8 8 8 8 12 11 10 9 8 8 7 6 6 4 5 5 5 5
4 5 4 5 5 4 8 6 8 9 5 8 9 9 8 8 10 10 12 13 12 13 12 13 11 12 12 10 8 8 9 8 8 8 8 11 12 10 9 8 7 7 6 7 7 6 5 4 5
8 7 4 4 2 3 7 13 13 8 6 9 8 9 9 9 13 9 9 11 12 12 13 12 10 11 9 8 5 5 6 7 6 8 9 11 9 11 10 8 7 7 6 7 5 6 5 4 6
3 4 6 2 6 3 9 14 12 9 5 8 9 9 9 11 12 11 9 9 9 7 10 13 11 13 8 7 8 9 9 6 7 7 10 11 11 11 12 9 8 8 9 10 9 7 9 7 4
7 10 8 7 8 4 8 13 10 6 7 8 11 14 14 11 11 14 10 8 8 13 14 13 14 12 10 9 8 8 7 8 7 8 10 11 14 13 13 12 10 10 8 8 9 10 5 7 7
9 12 4 12 5 7 5 17 11 11 8 9 10 14 13 17 16 15 8 7 7 8 9 12 14 11 9 10 4 3 2 3 4 8 10 12 14 14 14 13 12 11 10 10 11 11 13 10 5
15 7 6 6 0 7 3 13 13 10 15 9 10 9 12 11 8 6 5 3 5 5 4 3 5 5 5 6 6 10 10 11 10 11 9 10 13 15 14 15 14 13 10 12 11 11 12 11 10
7 6 8 8 5 4 15 7 14 5 9 6 8 11 11 9 7 5 6 6 5 6 6 6 4 4 5 5 7 8 10 10 8 8 11 12 11 13 13 14 15 14 11 13 14 12 13 11 12
3 2 1 2 2 11 10 7 12 13 11 5 11 7 6 5 8 7 5 4 6 7 8 8 8 6 7 4 6 8 10 10 9 10 9 9 9 9 13 14 14 14 13 14 13 15 15 15 13
4 4 3 5 7 10 6 9 18 7 7 9 8 6 8 7 6 7 9 8 8 10 11 9 8 8 7 7 6 6 8 10 13 12 10 11 9 8 11 13 14 12 14 15 14 14 15 15 15
11 12 8 7 6 5 1 9 11 10 12 8 6 9 5 5 6 9 9 10 11 13 14 14 14 13 13 12 12 8 6 4 7 10 10 10 10 11 13 13 14 16 16 15 15 12 13 15 14
5 13 8 6 3 5 5 8 9 9 2 3 8 9 8 7 9 11 11 11 11 13 13 14 15 15 15 14 12 12 10 9 8 10 10 9 11 10 12 12 14 16 16 17 16 13 15 15 14
6 7 4 7 5 5 3 5 8 6 6 4 6 7 7 8 11 11 11 11 10 10 10 12 13 13 13 16 15 13 13 12 11 9 10 11 11 10 12 12 12 14 16 16 17 14 15 16 13
6 8 4 3 4 6 2 6 7 5 5 8 6 8 10 8 8 8 9 8 9 9 11 12 13 13 14 16 16 16 16 15 13 11 10 10 11 11 11 13 13 14 14 15 16 16 16 17 16
9 13 15 8 8 3 1 6 8 2 4 5 8 10 8 9 9 9 10 10 12 12 12 12 13 13 13 13 14 15 15 16 16 15 15 13 12 11 11 11 11 12 13 13 15 16 14 16 17
Wind_Direction
323 317 4 39 54 59 9 351 309 33 58 236 278 95 132 58 117 212 35 141 135 140 149 149 146 141 135 130 119 112 115 114 122 124 138 137 128 116 125 121 110 116 108 113 105 93 92 87 72
316 325 36 78 78 66 291 295 115 190 195 208 64 98 71 132 136 126 100 156 140 140 141 144 146 143 138 135 133 134 133 130 132 140 143 151 129 130 132 125 127 117 121 111 109 105 94 83 76
316 7 68 78 102 143 183 216 187 213 175 151 87 57 126 161 324 166 149 147 136 139 138 144 143 144 144 145 143 142 137 137 136 141 149 157 143 134 143 132 127 135 125 125 117 103 97 87 78
358 2 28 76 358 280 195 183 230 137 349 345 125 78 47 268 160 197 149 142 134 139 140 147 150 148 153 151 149 146 144 143 148 146 158 167 146 135 147 134 141 146 136 130 115 114 97 82 73
32 52 40 30 339 334 44 171 177 155 196 214 191 177 107 346 181 128 133 141 134 132 143 149 152 154 159 159 157 155 156 154 151 150 163 177 152 142 151 143 138 138 144 128 130 116 93 79 71
24 75 46 23 318 310 341 334 71 53 348 54 72 84 218 135 124 162 132 147 143 143 149 151 153 158 166 167 165 167 166 164 156 155 158 185 154 156 151 165 154 149 144 150 141 123 100 77 63
88 63 223 248 289 355 318 326 19 71 7 343 294 115 275 196 205 166 145 147 153 149 150 152 155 164 171 178 179 174 172 171 170 166 163 173 200 168 151 149 163 167 172 167 159 147 130 96 63
103 92 312 285 314 288 300 18 358 43 15 295 94 193 229 201 193 159 144 152 160 161 160 160 161 157 171 176 183 182 176 177 176 172 172 177 191 185 165 173 200 189 165 150 166 173 171 192 308
79 62 249 259 25 278 338 36 340 307 39 346 23 61 306 129 145 152 163 154 172 178 174 167 167 167 166 174 184 188 186 184 179 178 174 176 194 198 189 188 207 197 187 180 182 186 196 200 259
95 134 224 169 282 265 330 17 320 356 353 344 10 31 26 109 162 174 193 190 190 189 194 179 177 176 171 173 175 188 194 190 186 178 184 176 193 203 196 205 209 203 198 174 199 205 206 205 252
164 185 230 262 277 340 289 300 317 13 295 223 211 189 179 187 203 210 219 211 201 203 193 188 185 185 179 182 172 176 183 184 188 187 191 192 184 203 215 212 229 201 182 186 200 204 203 218 227
258 245 206 284 140 12 267 264 302 240 235 270 271 242 178 193 201 203 218 221 213 212 216 186 193 186 194 188 179 182 182 189 190 199 200 180 194 199 205 202 201 199 196 202 213 217 222 225 228
203 266 278 273 254 241 256 248 250 254 274 282 283 190 206 209 219 226 208 222 225 218 225 223 184 196 192 188 185 189 192 191 196 198 202 190 190 196 198 210 194 196 195 203 207 218 225 229 227
275 256 265 262 289 282 245 257 165 270 263 283 297 257 234 219 217 211 218 219 220 221 217 227 222 197 186 188 188 189 194 195 197 203 208 197 192 192 193 202 210 209 203 206 206 208 216 226 225
269 279 289 225 244 262 307 281 232 247 280 279 281 269 249 233 234 222 219 218 212 214 217 207 213 220 198 196 193 191 193 193 202 208 209 208 195 190 190 202 208 210 207 212 210 225 225 225 227
351 290 234 241 196 248 162 257 265 254 242 265 292 290 265 260 232 237 233 226 215 214 209 212 200 209 218 207 199 200 197 198 206 207 211 212 212 192 196 201 207 202 195 202 202 211 220 222 218
213 248 247 313 229 247 182 278 252 252 223 273 285 304 291 269 276 253 236 220 222 217 217 219 200 204 214 219 211 208 205 205 207 207 209 212 213 205 204 212 215 194 201 206 211 217 202 206 222
230 243 263 225 268 217 261 265 262 277 295 293 301 298 294 282 274 265 250 230 218 213 211 216 208 212 206 213 206 218 219 221 213 218 219 215 217 209 206 211 212 198 203 211 204 202 204 202 212
258 235 243 270 267 295 274 264 259 258 270 277 285 276 272 268 264 270 254 232 212 219 213 213 208 212 191 195 208 219 220 214 229 229 224 217 216 210 211 216 209 203 210 217 211 211 214 227 201
242 263 267 275 262 244 269 268 265 262 254 237 254 270 267 269 273 264 259 249 221 218 213 216 214 216 203 202 215 215 209 224 217 223 228 218 217 211 213 214 212 209 216 216 211 211 219 231 187
228 235 228 251 340 290 287 275 275 264 248 255 260 257 264 257 264 269 273 259 259 246 225 219 220 223 218 212 200 192 257 271 214 223 226 226 224 222 217 215 215 211 210 219 216 215 218 230 215
239 186 232 249 291 258 171 286 277 279 265 241 248 263 258 261 279 274 257 54 36 332 277 225 224 220 231 199 200 204 218 229 231 235 235 231 220 224 219 219 215 214 210 219 215 215 219 219 229
228 189 216 230 219 258 257 276 275 216 265 248 260 247 260 246 237 103 86 76 43 33 45 47 26 342 303 269 234 221 229 241 243 240 243 237 232 221 219 214 219 220 217 221 219 213 213 216 227
107 172 12 50 147 247 244 209 258 265 261 242 247 276 297 132 126 105 98 83 59 32 26 22 23 19 10 339 272 253 252 245 249 246 242 240 238 230 222 219 222 221 222 223 223 219 213 215 222
150 133 254 234 217 254 185 198 244 275 289 228 228 206 140 148 107 90 63 38 32 31 24 18 14 5 2 354 337 308 280 272 264 257 249 243 237 231 231 224 223 224 225 227 225 222 221 220 221
193 181 193 207 217 254 240 229 254 233 263 236 240 182 149 121 96 69 56 45 41 32 26 23 15 9 4 358 342 327 305 284 283 275 267 256 241 238 230 227 225 226 226 226 227 225 223 225 228
174 211 237 279 165 268 205 274 292 257 265 140 145 135 145 97 70 68 56 47 38 34 27 22 17 10 6 359 352 340 331 321 302 293 287 275 255 247 242 227 222 224 225 224 224 225 227 227 228
194 153 180 211 237 248 234 247 238 337 267 183 145 134 89 75 67 58 49 41 35 30 24 24 20 12 1 357 352 341 330 326 320 307 295 291 280 255 245 235 227 226 226 227 224 225 227 227 226
164 195 166 169 220 236 219 254 224 281 193 174 148 98 92 73 63 57 53 42 34 25 22 16 14 11 5 357 345 340 337 333 330 324 316 307 300 283 256 247 240 234 231 228 228 228 227 223 225
212 204 206 220 218 256 161 265 267 231 116 28 70 82 81 74 58 48 38 29 26 17 12 10 5 9 1 351 342 340 338 339 338 333 327 329 318 304 279 260 249 242 236 232 231 232 226 228 225